Regional Weather Roundup
Issued by NWS

Home | Current Version | Previous Version | Text Only | Print | Product List | Glossary On
Versions: 1 2 3 4 5 6 7 8 9 10 11 12 13 14 15 16 17 18 19 20 21 22 23 24 25 26 27 28 29 30 31 32 33 34 35 36 37 38 39 40 41 42 43 44 45 46 47 48 49 50
000
ASUS43 KLOT 310808
RWRIL

ILLINOIS REGIONAL WEATHER ROUNDUP
NATIONAL WEATHER SERVICE CHICAGO/ROMEOVILLE IL
300 AM CDT TUE MAY 31 2016

NOTE: "FAIR" INDICATES FEW OR NO CLOUDS BELOW 12,000 FEET WITH NO
SIGNIFICANT WEATHER AND/OR OBSTRUCTIONS TO VISIBILITY.

* THESE STATIONS ARE NOT UNDER NWS QUALITY CONTROL. THEY ALSO MAY NOT
  REPORT WEATHER SUCH AS PRECIPITATION OR FOG.

ILZ001-002-007-009-015-016-024-310900-
NORTHWEST ILLINOIS

CITY           SKY/WX    TMP DP  RH WIND       PRES   REMARKS
MOLINE         CLOUDY    69  63  81 W3        29.94F
STERLING*      CLOUDY    69  62  78 SE7       29.96S
SAVANNA*       MOCLDY    66  57  72 N6        29.96S
$$

ILZ003-004-008-010-011-017-018-310900-
NORTH CENTRAL ILLINOIS

CITY           SKY/WX    TMP DP  RH WIND       PRES   REMARKS
ROCKFORD       PTCLDY    65  56  72 CALM      29.99F
FREEPORT*      CLOUDY    64  57  77 E5        29.98F
ROCHELLE*      CLOUDY    67  57  71 E12       29.98F THUNDER
DE KALB*       PTCLDY    63  57  81 E7        29.99F
$$

ILZ005-006-012>014-019>023-310900-
NORTHEAST ILLINOIS

CITY           SKY/WX    TMP DP  RH WIND       PRES   REMARKS
CHICAGO-OHARE  CLOUDY    65  55  70 CALM      29.99S
CHICAGO-MIDWAY CLOUDY    69  55  60 E7        29.99S
AURORA         PTCLDY    65  57  75 NE5       29.98F
LANSING*       PTCLDY    67  57  70 E5        29.99F
JOLIET*        MOCLDY    68  59  71 E5        29.98S
WAUKEGAN       CLOUDY    64  57  78 SE3       29.99S
DUPAGE AIRPORT PTCLDY    66  54  65 E5        29.98F
KANKAKEE*      CLOUDY    65  59  80 CALM      29.97F
WHEELING       PTCLDY    66  55  67 CALM      30.00F
MORRIS*        PTCLDY    67  57  71 CALM      29.97S
ROMEOVILLE*    PTCLDY    67  55  64 E10       29.99S
NORTHERLY ISL    N/A     63  56  78 N1          N/A
NORTHERLY ISL    N/A     63  56  78 N1          N/A
$$

LMZ740>746-310900-
SOUTHERN LAKE MICHIGAN

STATION/POSITION SKY/WX   TEMP    WIND        PRES    VSBY  WAVE
                          AIR SEA DIR/SP/G                  HT/PER
                          (F)     (DEG/KT/KT) (MB)    (MI)  (FT/S)
SOUTHERN BUOY              60 56  120/  4/  6 1015.7R         0
WILMETTE HARBOR            60 57   30/  2/  2   N/A           0
HARRISON CRIB              66      80/  6/  7   N/A
BURNHAM HARBOR             62      CALM  /  4   N/A
CALUMET HARBOR             64     140/  4/  5 1015.4R
BURNS HARBOR               64      70/  4/  8 1016.3R
MICHIGAN CITY              67      50/  7/  8   N/A
MICHIGAN CITY 6N           63 62  180/  2/  4   N/A           0
ST. JOSEPH                 67 64   60/  4/  6   N/A           0
$$

ILZ025>027-034>036-040-047-049-050-058-095>099-310900-
WEST-CENTRAL ILLINOIS

CITY           SKY/WX    TMP DP  RH WIND       PRES   REMARKS
QUINCY         CLOUDY    68  62  81 CALM      29.96F
GALESBURG*     MOCLDY    66  63  90 CALM      29.96F
MACOMB*        CLOUDY    67  62  82 CALM      29.99F
JACKSONVILLE*  CLOUDY    68  60  75 CALM      29.97F
PITTSFIELD*    MOCLDY    67  64  88 CALM      29.98F
$$

ILZ028>032-037-038-041>044-048-051>054-059>061-310900-
CENTRAL ILLINOIS

CITY           SKY/WX    TMP DP  RH WIND       PRES   REMARKS
PONTIAC        CLOUDY    70  64  79 CALM      29.98S
BLOOMINGTON    CLOUDY    73  61  66 W6        29.99R
DECATUR        CLOUDY    68  61  78 W7        29.99R
PEORIA         CLOUDY    71  61  70 CALM      29.96F
LACON*         CLOUDY    68  62  80 CALM      29.95S
LINCOLN*       CLOUDY    69  62  79 CALM      29.97S
SPRINGFIELD    CLOUDY    68  61  78 CALM      29.98S
TAYLORVILLE    CLOUDY    65  60  83 CALM      29.98F
$$

ILZ033-039-045-046-055>057-062-063-310900-
EAST-CENTRAL ILLINOIS

CITY           SKY/WX    TMP DP  RH WIND       PRES   REMARKS
CHAMPAIGN      CLOUDY    66  61  84 CALM      29.98S
RANTOUL*       CLOUDY    67  62  83 CALM      29.97S
MATTOON        CLOUDY    66  60  81 CALM      29.97R
PARIS*         PTCLDY    65  63  92 CALM      29.99R
$$

ILZ079-100>102-310900-
SOUTHWEST ILLINOIS

CITY           SKY/WX    TMP DP  RH WIND       PRES   REMARKS
ALTON          PTCLDY    67  60  79 CALM      29.98S
CAHOKIA*       CLOUDY    69  64  84 CALM      29.97S
SPARTA*        CLOUDY    70  64  83 CALM      29.98S
$$

ILZ064>066-069>071-074>076-080>082-084>086-088>090-092>094-310900-
SOUTH-CENTRAL ILLINOIS

CITY           SKY/WX    TMP DP  RH WIND       PRES   REMARKS
CARBONDALE     CLOUDY    68  65  90 CALM      29.96R
CAIRO*         CLOUDY    69  67  95 CALM      29.94S
EFFINGHAM*     PTCLDY    67  67 100 CALM      29.99S
MARION         CLOUDY    68  66  94 CALM      29.97R
MT. VERNON     MOCLDY    64  61  88 CALM      29.98R
CENTRALIA*     CLOUDY    70  69  95 CALM      29.97R
SALEM*         CLOUDY    71  67  87 NW5       29.98R
METROPOLIS*    MOCLDY    67  67 100 CALM      29.96S
$$

ILZ067-068-072-073-078-083-087-091-310900-
SOUTHEAST ILLINOIS

CITY           SKY/WX    TMP DP  RH WIND       PRES   REMARKS
LAWRENCEVILLE  CLOUDY    67  64  90 CALM      29.97S
FLORA*         CLOUDY    70  67  89 N5        29.97S
FAIRFIELD*     CLOUDY    68  65  90 CALM      29.96R
HARRISBURG*    PTCLDY    67  67  99 CALM      29.96S
ROBINSON*      CLOUDY    64  63  96 CALM      29.98R
CARMI*         CLOUDY    67  66  97 CALM      29.96R
$$

ABBREVIATIONS USED IN REMARKS
   TC - TEMPERATURE IN CELSIUS
  WCI - WIND CHILL INDEX
   HX - HEAT INDEX
  VSB - VISIBILITY
$$




USA.gov is the U.S. government's official web portal to all federal, state and local government web resources and services.